FW8032 Weather Reports


time (UTC)temp
C
wind
direction
speed
KPH
gust
KPH
rain 1hr
cm
rain 24hr
cm
rain mn
cm
humidity
%
barometer
mb
20260507070329 6 36 0.0 0.0 0.00 0.00 0.00 92 1019.5
20260507065826 6 36 0.0 0.0 0.00 0.00 0.00 91 1019.5
20260507065322 6 36 0.0 0.0 0.00 0.00 0.00 91 1019.5
20260507064820 6 36 0.0 0.0 0.00 0.00 0.00 91 1019.5
20260507064318 6 36 0.0 0.0 0.00 0.00 0.00 90 1019.9
20260507063816 6 36 0.0 0.0 0.00 0.00 0.00 90 1019.5
20260507063312 6 36 0.0 0.0 0.00 0.00 0.00 90 1019.9
20260507062809 6 36 0.0 0.0 0.00 0.00 0.00 90 1019.9
20260507062306 6 36 0.0 0.0 0.00 0.00 0.00 89 1019.9
20260507061804 6 36 0.0 0.0 0.00 0.00 0.00 89 1019.9
20260507061302 6 36 0.0 0.0 0.00 0.00 0.00 89 1019.9
20260507060800 6 36 0.0 0.0 0.00 0.00 0.00 89 1020.2
20260507060256 6 36 0.0 0.0 0.00 0.00 0.00 89 1019.9
20260507055753 6 36 0.0 0.0 0.00 0.00 0.00 89 1019.9
20260507055248 6 36 0.0 0.0 0.00 0.00 0.00 89 1019.9
20260507054745 6 36 0.0 0.0 0.00 0.00 0.00 89 1019.9
20260507054241 6 36 0.0 0.0 0.00 0.00 0.00 89 1020.2
20260507053739 6 36 0.0 0.0 0.00 0.00 0.00 89 1019.9
20260507053236 6 36 0.0 0.0 0.00 0.00 0.00 89 1019.9
20260507052735 6 36 0.0 0.0 0.00 0.00 0.00 88 1020.2
20260507052231 7 36 0.0 0.0 0.00 0.00 0.00 88 1019.9
20260507051729 7 36 0.0 0.0 0.00 0.00 0.00 87 1019.9
20260507051226 7 36 0.0 0.0 0.00 0.00 0.00 86 1019.5
20260507050722 7 36 0.0 0.0 0.00 0.00 0.00 85 1019.9
20260507050220 7 36 0.0 0.0 0.00 0.00 0.00 84 1019.9
20260507045716 7 36 0.0 0.0 0.00 0.03 0.03 84 1019.9
20260507045212 7 36 0.0 0.0 0.00 0.03 0.03 84 1019.5
20260507044710 7 36 0.0 0.0 0.00 0.03 0.03 84 1020.2
20260507044206 7 36 0.0 0.0 0.00 0.03 0.03 83 1019.9
20260507043702 7 36 0.0 0.0 0.00 0.03 0.03 84 1019.9
20260507043159 7 36 0.0 0.0 0.00 0.03 0.03 84 1019.9
20260507042656 7 36 0.0 0.0 0.00 0.03 0.03 84 1019.9
20260507042150 7 36 0.0 0.0 0.00 0.03 0.03 84 1019.9
20260507041648 7 36 0.0 0.0 0.00 0.03 0.03 85 1019.5
20260507041144 7 36 0.0 0.0 0.00 0.03 0.03 85 1019.9
20260507040642 7 36 0.0 0.0 0.00 0.03 0.03 85 1019.5
20260507040138 7 36 0.0 0.0 0.00 0.03 0.03 84 1019.5
20260507035634 8 36 0.0 0.0 0.00 0.03 0.03 83 1019.5
20260507035130 8 36 0.0 0.0 0.00 0.03 0.03 83 1019.9
20260507034627 8 36 0.0 0.0 0.00 0.03 0.03 82 1019.5
20260507034125 8 36 0.0 0.0 0.00 0.03 0.03 81 1019.2
20260507033623 8 36 0.0 0.0 0.00 0.03 0.03 80 1019.2
20260507033119 8 36 0.0 0.0 0.00 0.03 0.03 80 1019.2
20260507032617 8 36 0.0 0.0 0.00 0.03 0.03 80 1019.5
20260507032113 8 36 0.0 0.0 0.00 0.03 0.03 78 1019.2
20260507031610 8 36 0.0 0.0 0.00 0.03 0.03 78 1019.2
20260507031106 8 36 0.0 0.0 0.00 0.03 0.03 78 1019.2
20260507030603 8 36 0.0 0.0 0.00 0.03 0.03 78 1019.5
20260507030101 8 36 0.0 0.0 0.00 0.03 0.03 78 1019.2
20260507025558 8 36 0.0 0.0 0.00 0.03 0.03 79 1019.2
20260507025055 8 36 0.0 0.0 0.00 0.03 0.03 77 1019.2
20260507024553 9 36 0.0 0.0 0.00 0.03 0.03 77 1019.2
20260507024050 9 36 0.0 0.0 0.00 0.03 0.03 77 1019.2
20260507023545 9 36 0.0 0.0 0.00 0.03 0.03 75 1019.2
20260507023043 9 36 0.0 0.0 0.00 0.03 0.03 72 1019.2
20260507022539 10 36 0.0 0.0 0.00 0.03 0.03 71 1019.2
20260507022035 10 36 0.0 0.0 0.00 0.03 0.03 71 1019.2
20260507021531 10 36 0.0 0.0 0.00 0.03 0.03 71 1019.2
20260507021028 10 36 0.0 0.0 0.00 0.03 0.03 71 1018.8
20260507020525 10 36 0.0 0.0 0.00 0.03 0.03 70 1018.8
20260507020022 10 36 0.0 0.0 0.00 0.03 0.03 70 1018.8
20260507015520 10 36 0.0 0.0 0.00 0.03 0.03 69 1018.5
20260507015017 10 36 0.0 0.0 0.00 0.03 0.03 69 1018.5
20260507014514 10 36 0.0 0.0 0.00 0.03 0.03 66 1018.8
20260507014010 11 36 0.0 0.0 0.00 0.03 0.03 66 1018.8
20260507013506 11 36 0.0 0.0 0.00 0.03 0.03 65 1018.5
20260507013004 11 36 0.0 0.0 0.00 0.03 0.03 64 1018.5
20260507012501 11 36 0.0 0.0 0.00 0.03 0.03 60 1018.5
20260507011957 12 36 0.0 0.0 0.00 0.03 0.03 59 1018.5
20260507011454 12 36 0.0 0.0 0.00 0.03 0.03 60 1018.1
20260507010950 12 36 0.0 0.0 0.00 0.03 0.03 56 1018.1
20260507010444 13 36 0.0 0.0 0.00 0.03 0.03 57 1018.1
20260507005942 13 36 0.0 0.0 0.00 0.03 0.03 56 1018.1
20260507005439 13 36 0.0 0.0 0.00 0.03 0.03 56 1018.1
20260507004935 14 36 0.0 0.0 0.00 0.03 0.03 53 1018.1
20260507004432 14 36 0.0 0.0 0.00 0.03 0.03 55 1018.5
20260507003930 15 36 0.0 0.0 0.00 0.03 0.03 52 1018.1
20260507003424 15 36 0.0 0.0 0.00 0.03 0.03 52 1018.1
20260507002920 15 36 0.0 0.0 0.00 0.03 0.03 48 1018.1
20260507002416 15 36 0.0 0.0 0.00 0.03 0.03 48 1018.1
20260507001914 15 37 0.0 0.0 0.00 0.03 0.03 48 1018.1
20260507001410 16 36 0.0 0.0 0.00 0.03 0.03 49 1017.7
20260507000908 16 36 0.0 0.0 0.00 0.03 0.03 48 1017.7
20260507000405 16 36 0.0 0.0 0.00 0.03 0.03 46 1017.7
20260506235859 17 36 0.0 0.0 0.00 0.03 0.03 43 1017.7
20260506235356 17 108 0.0 0.0 0.00 0.03 0.03 43 1017.4
20260506234852 18 312 3.2 3.2 0.00 0.03 0.03 42 1017.4
20260506234350 18 54 0.0 0.0 0.00 0.03 0.03 44 1017.4
20260506233847 18 96 0.0 0.0 0.00 0.03 0.03 44 1017.0
20260506233343 18 36 0.0 0.0 0.00 0.03 0.03 43 1017.4
20260506232840 18 54 0.0 0.0 0.00 0.03 0.03 44 1017.4
20260506232336 18 42 0.0 0.0 0.00 0.03 0.03 41 1017.0
20260506231827 18 65 0.0 0.0 0.00 0.03 0.03 43 1017.4
20260506231324 18 40 0.0 0.0 0.00 0.03 0.03 42 1016.7
20260506230822 18 60 1.6 1.6 0.00 0.03 0.03 42 1017.4
20260506230318 18 56 3.2 3.2 0.00 0.03 0.03 40 1017.0
20260506225814 18 66 0.0 0.0 0.00 0.03 0.03 43 1017.0
20260506225312 18 38 0.0 0.0 0.00 0.03 0.03 42 1017.0
20260506224809 18 54 1.6 1.6 0.00 0.03 0.03 41 1017.0
20260506224306 18 49 3.2 3.2 0.00 0.03 0.03 42 1017.0
20260506223802 19 36 3.2 3.2 0.00 0.03 0.03 39 1017.0
20260506223257 19 36 3.2 3.2 0.00 0.03 0.03 38 1017.0
20260506222754 18 54 0.0 0.0 0.00 0.03 0.03 42 1017.0
20260506222250 18 42 0.0 0.0 0.00 0.03 0.03 42 1017.0
20260506221748 18 37 0.0 0.0 0.00 0.03 0.03 39 1017.0
20260506221246 18 60 0.0 0.0 0.00 0.03 0.03 41 1017.0
20260506220743 18 36 0.0 0.0 0.00 0.03 0.03 40 1017.0
20260506220238 18 81 3.2 3.2 0.00 0.03 0.03 45 1017.0
20260506215735 18 25 3.2 3.2 0.00 0.03 0.03 39 1017.4
20260506215230 18 24 0.0 0.0 0.00 0.03 0.03 42 1017.0
20260506214727 18 30 0.0 0.0 0.00 0.03 0.03 47 1017.0
20260506214224 18 61 0.0 0.0 0.00 0.03 0.03 43 1017.4
20260506213722 18 82 0.0 0.0 0.00 0.03 0.03 43 1017.4
20260506213219 19 88 0.0 0.0 0.00 0.03 0.03 43 1017.4
20260506212717 20 60 1.6 1.6 0.00 0.03 0.03 40 1017.4
20260506212212 20 18 3.2 3.2 0.00 0.03 0.03 42 1017.4
20260506211708 19 36 0.0 0.0 0.00 0.03 0.03 42 1017.4
20260506211204 18 54 3.2 3.2 0.00 0.03 0.03 43 1017.0
20260506210701 18 66 0.0 0.0 0.00 0.03 0.03 41 1017.4
20260506210158 18 24 3.2 3.2 0.00 0.03 0.03 42 1017.4
20260506205655 18 46 0.0 0.0 0.00 0.03 0.03 42 1017.4
20260506205150 18 78 0.0 0.0 0.00 0.03 0.03 41 1017.4
20260506204648 19 38 3.2 3.2 0.00 0.03 0.03 36 1017.7
20260506204144 18 42 0.0 0.0 0.00 0.03 0.03 41 1017.4
20260506203643 19 66 3.2 3.2 0.00 0.03 0.03 40 1017.7
20260506203139 19 88 0.0 0.0 0.00 0.03 0.03 40 1017.7
20260506202638 19 42 0.0 0.0 0.00 0.03 0.03 38 1017.7
20260506202133 20 30 0.0 0.0 0.00 0.03 0.03 40 1017.7
20260506201630 20 55 4.8 4.8 0.00 0.03 0.03 37 1017.7
20260506201127 19 24 0.0 0.0 0.00 0.03 0.03 39 1018.1
20260506200623 19 56 3.2 3.2 0.00 0.03 0.03 38 1018.1
20260506200120 19 60 0.0 0.0 0.00 0.03 0.03 40 1017.7
20260506195617 18 38 0.0 0.0 0.00 0.03 0.03 45 1017.7
20260506195113 18 77 1.6 1.6 0.00 0.03 0.03 46 1017.7
20260506194611 18 60 0.0 0.0 0.00 0.03 0.03 45 1018.1
20260506194107 18 74 0.0 0.0 0.00 0.03 0.03 48 1017.7
20260506193605 18 38 3.2 3.2 0.00 0.03 0.03 42 1018.1
20260506193102 18 42 3.2 3.2 0.00 0.03 0.03 42 1018.5
20260506192558 18 62 1.6 1.6 0.00 0.03 0.03 47 1018.5
20260506192054 17 74 1.6 1.6 0.00 0.03 0.03 44 1018.5
20260506191551 17 54 3.2 3.2 0.00 0.03 0.03 46 1018.8
20260506191047 17 36 0.0 0.0 0.00 0.03 0.03 42 1018.8
20260506190545 16 76 8.0 9.7 0.00 0.03 0.03 45 1018.8
20260506190042 16 52 4.8 4.8 0.00 0.03 0.03 45 1018.8
20260506185539 16 77 3.2 3.2 0.00 0.03 0.03 48 1018.8
20260506185035 17 37 3.2 3.2 0.00 0.03 0.03 46 1018.8
20260506184533 16 37 3.2 3.2 0.00 0.03 0.03 45 1018.8
20260506184030 16 47 3.2 3.2 0.00 0.03 0.03 45 1018.8
20260506183525 16 72 3.2 3.2 0.00 0.03 0.03 45 1019.2
20260506183023 17 84 3.2 3.2 0.00 0.03 0.03 46 1019.2
20260506182520 17 36 0.0 0.0 0.00 0.03 0.03 45 1019.2
20260506182017 16 42 3.2 3.2 0.00 0.03 0.03 47 1019.2
20260506181515 16 52 4.8 4.8 0.00 0.03 0.03 50 1019.2
20260506181011 16 32 3.2 3.2 0.00 0.03 0.03 44 1019.2
20260506180508 16 44 3.2 3.2 0.00 0.03 0.03 42 1019.5
20260506180005 16 48 3.2 3.2 0.00 0.03 0.03 48 1019.5
20260506175501 16 42 0.0 0.0 0.00 0.03 0.03 48 1019.5
20260506174957 16 14 3.2 3.2 0.00 0.03 0.03 48 1019.9
20260506174456 16 48 1.6 1.6 0.00 0.03 0.03 48 1019.9
20260506173952 16 42 3.2 3.2 0.00 0.03 0.03 51 1019.5
20260506173450 16 30 9.7 9.7 0.00 0.03 0.03 50 1019.5
20260506172946 15 87 0.0 0.0 0.00 0.03 0.03 51 1019.9
20260506172444 15 90 1.6 1.6 0.00 0.03 0.03 49 1019.9
20260506171940 15 42 0.0 0.0 0.00 0.03 0.03 50 1019.9
20260506171437 15 56 1.6 1.6 0.00 0.03 0.03 50 1019.9
20260506170935 15 54 3.2 3.2 0.00 0.03 0.03 49 1020.2
20260506170431 14 60 0.0 0.0 0.00 0.03 0.03 54 1019.9
20260506165930 14 67 3.2 3.2 0.00 0.03 0.03 51 1020.2
20260506165428 14 58 1.6 1.6 0.00 0.03 0.03 54 1020.2
20260506164918 14 56 4.8 4.8 0.00 0.03 0.03 50 1020.2
20260506164415 15 48 3.2 3.2 0.00 0.03 0.03 52 1019.9
20260506163913 15 39 3.2 3.2 0.00 0.03 0.03 50 1019.5
20260506163407 15 31 3.2 3.2 0.00 0.03 0.03 55 1019.5
20260506162903 14 31 3.2 3.2 0.00 0.03 0.03 56 1019.2
20260506162401 14 144 0.0 0.0 0.00 0.03 0.03 58 1019.2
20260506161858 13 36 3.2 3.2 0.00 0.03 0.03 56 1019.2
20260506161355 13 76 3.2 3.2 0.00 0.03 0.03 58 1018.8
20260506160853 13 77 3.2 3.2 0.00 0.03 0.03 58 1018.5
20260506160350 13 84 3.2 3.2 0.00 0.03 0.03 57 1018.8
20260506155848 13 73 4.8 4.8 0.00 0.03 0.03 58 1018.8
20260506155344 13 75 3.2 3.2 0.00 0.03 0.03 60 1018.5
20260506153502 13 18 3.2 3.2 0.00 0.03 0.03 60 1018.5
20260506152959 13 20 3.2 3.2 0.00 0.03 0.03 59 1018.5
20260506152456 13 36 3.2 3.2 0.00 0.03 0.03 62 1018.8
20260506151954 13 37 3.2 3.2 0.00 0.03 0.03 62 1018.8
20260506151452 12 12 3.2 3.2 0.00 0.03 0.03 64 1018.8
20260506150949 12 12 3.2 3.2 0.00 0.03 0.03 63 1018.8
20260506150445 12 18 3.2 3.2 0.00 0.03 0.03 64 1019.2
20260506145942 12 30 0.0 0.0 0.00 0.03 0.03 65 1018.8
20260506145438 12 6 3.2 3.2 0.00 0.03 0.03 66 1018.5
20260506144936 12 32 3.2 3.2 0.00 0.03 0.03 66 1018.5
20260506144432 11 18 3.2 3.2 0.00 0.03 0.03 71 1018.1
20260506143931 11 60 3.2 3.2 0.00 0.03 0.03 72 1018.5
20260506143427 11 12 3.2 3.2 0.00 0.03 0.03 72 1018.1
20260506142926 11 12 3.2 3.2 0.00 0.03 0.03 75 1018.5
20260506142423 11 18 3.2 3.2 0.00 0.03 0.03 73 1018.5
20260506141921 10 12 1.6 1.6 0.00 0.03 0.03 77 1018.5
20260506141419 10 42 4.8 6.4 0.00 0.03 0.03 78 1018.1
20260506140917 10 0 3.2 3.2 0.00 0.03 0.03 77 1018.8
20260506140414 10 12 3.2 3.2 0.00 0.03 0.03 77 1018.5
20260506135911 10 12 3.2 3.2 0.00 0.03 0.03 78 1018.8
20260506135408 9 20 3.2 3.2 0.00 0.03 0.03 80 1018.5
20260506134904 9 19 3.2 3.2 0.00 0.03 0.03 79 1018.8
20260506134400 8 84 3.2 3.2 0.00 0.03 0.03 79 1018.8
20260506133857 8 82 3.2 3.2 0.00 0.03 0.03 79 1018.5
20260506133354 8 90 4.8 4.8 0.00 0.03 0.03 81 1018.5
20260506132850 8 78 4.8 4.8 0.00 0.03 0.03 81 1018.5
20260506132348 8 77 3.2 3.2 0.00 0.03 0.03 81 1018.5
20260506131846 8 72 4.8 4.8 0.00 0.03 0.03 83 1018.5
20260506131342 8 48 3.2 3.2 0.00 0.03 0.03 83 1018.5
20260506130839 8 42 3.2 3.2 0.00 0.03 0.03 85 1018.1
20260506130335 8 42 3.2 3.2 0.00 0.03 0.03 84 1018.5
20260506125833 8 60 3.2 3.2 0.00 0.03 0.03 84 1018.5
20260506125332 8 66 3.2 3.2 0.00 0.03 0.03 85 1018.1
20260506124830 8 64 4.8 4.8 0.00 0.03 0.03 85 1018.5
20260506124326 8 36 3.2 3.2 0.00 0.03 0.03 86 1018.5
20260506123824 7 12 1.6 1.6 0.00 0.03 0.03 89 1018.1
20260506123322 7 12 1.6 1.6 0.00 0.03 0.03 89 1018.1
20260506122819 7 12 3.2 3.2 0.00 0.03 0.03 90 1018.1
20260506122316 7 12 3.2 3.2 0.00 0.03 0.03 90 1018.1
20260506121814 7 12 3.2 3.2 0.00 0.03 0.03 91 1018.5
20260506121311 7 12 3.2 3.2 0.00 0.03 0.03 92 1018.1
20260506120808 7 12 3.2 3.2 0.00 0.03 0.03 93 1018.5
20260506120306 7 63 3.2 3.2 0.00 0.03 0.03 93 1018.5
20260506115803 7 48 0.0 0.0 0.00 0.03 0.03 94 1018.8
20260506115306 7 48 0.0 0.0 0.00 0.03 0.03 94 1018.5
20260506114759 7 48 0.0 0.0 0.00 0.03 0.03 94 1018.5
20260506114256 7 48 0.0 0.0 0.00 0.03 0.03 94 1018.5
20260506113755 7 48 0.0 0.0 0.00 0.03 0.03 94 1018.5
20260506113252 7 48 0.0 0.0 0.00 0.03 0.03 94 1017.7
20260506112748 7 48 0.0 0.0 0.00 0.03 0.03 94 1018.1
20260506112246 7 42 0.0 0.0 0.00 0.03 0.03 94 1017.7
20260506111743 7 42 0.0 0.0 0.00 0.03 0.03 94 1017.7
20260506111241 7 42 0.0 0.0 0.00 0.03 0.03 94 1017.7
20260506110737 7 42 0.0 0.0 0.00 0.03 0.03 94 1017.7
20260506110235 7 42 0.0 0.0 0.00 0.03 0.03 94 1017.7
20260506105731 7 42 0.0 0.0 0.00 0.03 0.03 94 1017.7
20260506105229 7 42 0.0 0.0 0.00 0.03 0.03 94 1017.4
20260506104727 7 42 0.0 0.0 0.00 0.03 0.03 94 1017.4
20260506104224 7 42 0.0 0.0 0.00 0.03 0.03 93 1017.4
20260506103721 7 42 0.0 0.0 0.00 0.03 0.03 93 1017.4
20260506103218 7 42 0.0 0.0 0.00 0.03 0.03 93 1017.0
20260506102716 7 42 0.0 0.0 0.00 0.03 0.03 93 1016.7
20260506102214 7 42 0.0 0.0 0.00 0.03 0.03 93 1016.7
20260506101710 7 42 0.0 0.0 0.00 0.03 0.03 93 1017.0
20260506101207 7 42 3.2 3.2 0.00 0.03 0.03 93 1017.0
20260506100705 7 37 0.0 0.0 0.00 0.03 0.03 93 1017.0
20260506100203 7 37 0.0 0.0 0.00 0.03 0.03 93 1016.7
20260506095701 7 37 0.0 0.0 0.00 0.03 0.03 93 1016.4
20260506095157 7 37 0.0 0.0 0.00 0.03 0.03 93 1016.4
20260506094655 7 37 0.0 0.0 0.00 0.03 0.03 93 1016.4
20260506094152 7 37 0.0 0.0 0.00 0.03 0.03 93 1016.0
20260506093651 7 37 0.0 0.0 0.00 0.03 0.03 93 1016.4
20260506093148 7 37 0.0 0.0 0.00 0.03 0.03 93 1016.0
20260506092645 7 37 0.0 0.0 0.00 0.03 0.03 92 1016.0
20260506092142 7 37 0.0 0.0 0.00 0.03 0.03 92 1016.4
20260506091641 7 37 0.0 0.0 0.00 0.03 0.03 92 1016.4
20260506091138 7 37 0.0 0.0 0.00 0.03 0.03 92 1016.0
20260506090636 7 37 0.0 0.0 0.00 0.03 0.03 92 1016.4
20260506090131 7 37 0.0 0.0 0.00 0.03 0.03 91 1015.7
20260506085629 7 37 3.2 3.2 0.03 0.03 0.03 91 1015.7
20260506085125 7 37 0.0 0.0 0.03 0.03 0.03 91 1015.7
20260506084621 7 37 0.0 0.0 0.03 0.03 0.03 90 1015.4
20260506084118 7 37 0.0 0.0 0.03 0.03 0.03 90 1015.4
20260506083615 7 36 0.0 0.0 0.00 0.00 0.00 89 1015.0
20260506083113 7 37 0.0 0.0 0.00 0.00 0.00 89 1015.0
20260506082609 7 37 3.2 3.2 0.00 0.00 0.00 88 1014.7
20260506082105 7 37 0.0 0.0 0.00 0.00 0.00 88 1014.7
20260506081603 7 77 0.0 0.0 0.00 0.00 0.00 89 1015.0
20260506081101 7 77 0.0 0.0 0.00 0.00 0.00 88 1014.7
20260506080558 7 58 3.2 3.2 0.00 0.00 0.00 89 1014.2
20260506073038 7 42 3.2 3.2 0.00 0.00 0.00 89 1014.2
20260506072536 7 36 0.0 0.0 0.00 0.00 0.00 89 1014.2
20260506072033 7 36 0.0 0.0 0.00 0.00 0.00 88 1013.9
20260506071531 7 36 1.6 1.6 0.00 0.00 0.00 88 1014.2
20260506071028 7 30 0.0 0.0 0.00 0.00 0.00 88 1014.7